• In Latvia
  • List of Countries
  • For 7 days
  • Water Temperature
  • Satellite Maps
  • Weather Map
  • Weather Widgets
  • user-avatar
    Login

    Hourly Weather Mloty

    Today, 23 October, Tuesday

    Time Temperature Precipitation Wind Pressure Humidity
    00:00 +5°C° 0 mm 2 mps 722 mmHg 88%
    01:00 +4°C° 0 mm 2 mps 722 mmHg 90%
    02:00 +3°C° 0 mm 2 mps 721 mmHg 90%
    03:00 +3°C° 0 mm 2 mps 721 mmHg 90%
    04:00 +2°C° 0 mm 2 mps 720 mmHg 90%
    05:00 +2°C° 0 mm 2 mps 720 mmHg 90%
    06:00 +1°C° 0 mm 3 mps 719 mmHg 90%
    07:00 +1°C° 0 mm 3 mps 719 mmHg 89%
    08:00 +3°C° 0 mm 4 mps 718 mmHg 81%
    09:00 +3°C° 0 mm 6 mps 718 mmHg 72%
    10:00 +5°C° 0 mm 7 mps 717 mmHg 64%
    11:00 +5°C° 0.2 mm 8 mps 717 mmHg 62%
    12:00 +6°C° 0.2 mm 8 mps 716 mmHg 61%
    13:00 +6°C° 0.2 mm 9 mps 715 mmHg 60%
    14:00 +6°C° 0.2 mm 9 mps 714 mmHg 65%
    15:00 +6°C° 0.2 mm 9 mps 713 mmHg 69%
    16:00 +5°C° 0.2 mm 9 mps 713 mmHg 74%
    17:00 +6°C° 0.2 mm 9 mps 712 mmHg 76%
    18:00 +6°C° 0.2 mm 9 mps 712 mmHg 77%
    19:00 +6°C° 0.2 mm 9 mps 711 mmHg 79%
    20:00 +7°C° 0.3 mm 10 mps 711 mmHg 79%
    21:00 +7°C° 0.3 mm 10 mps 710 mmHg 79%
    22:00 +7°C° 0.3 mm 10 mps 709 mmHg 80%
    23:00 +8°C° 0.5 mm 10 mps 708 mmHg 80%

    Tomorrow, 24 October, Wednesday

    Time Temperature Precipitation Wind Pressure Humidity
    00:00 +8°C° 0.5 mm 10 mps 708 mmHg 80%
    01:00 +8°C° 0.5 mm 10 mps 707 mmHg 81%
    02:00 +8°C° 1 mm 11 mps 707 mmHg 81%
    03:00 +8°C° 1 mm 11 mps 706 mmHg 81%
    04:00 +8°C° 1 mm 11 mps 706 mmHg 81%
    05:00 +7°C° 0.7 mm 11 mps 707 mmHg 78%
    06:00 +6°C° 0.7 mm 10 mps 707 mmHg 75%
    07:00 +3°C° 0.7 mm 10 mps 708 mmHg 72%
    08:00 +3°C° 0.1 mm 10 mps 708 mmHg 69%
    09:00 +3°C° 0.1 mm 10 mps 709 mmHg 67%
    10:00 +3°C° 0.1 mm 10 mps 709 mmHg 64%
    11:00 +3°C° 0.1 mm 10 mps 710 mmHg 62%
    12:00 +3°C° 0.1 mm 10 mps 710 mmHg 60%
    13:00 +3°C° 0.1 mm 10 mps 711 mmHg 58%
    14:00 +3°C° 0 mm 9 mps 711 mmHg 58%
    15:00 +4°C° 0 mm 8 mps 712 mmHg 57%
    16:00 +4°C° 0 mm 8 mps 712 mmHg 56%
    17:00 +3°C° 0 mm 7 mps 713 mmHg 59%
    18:00 +2°C° 0 mm 6 mps 714 mmHg 62%
    19:00 +1°C° 0 mm 5 mps 714 mmHg 65%
    20:00 +1°C° 0 mm 5 mps 714 mmHg 67%
    21:00 +1°C° 0 mm 5 mps 715 mmHg 69%
    22:00 0°C° 0 mm 5 mps 715 mmHg 71%
    23:00 0°C° 0 mm 4 mps 715 mmHg 74%

    Day after tomorrow, 25 October, Thursday

    Time Temperature Precipitation Wind Pressure Humidity
    00:00 0°C° 0 mm 4 mps 715 mmHg 77%
    01:00 -1°C° 0 mm 4 mps 715 mmHg 79%
    02:00 0°C° 0 mm 4 mps 714 mmHg 81%
    03:00 0°C° 0 mm 4 mps 714 mmHg 83%
    04:00 0°C° 0 mm 4 mps 713 mmHg 85%
    05:00 +1°C° 0.2 mm 4 mps 713 mmHg 86%
    06:00 +2°C° 0.2 mm 5 mps 712 mmHg 87%
    07:00 +5°C° 0.2 mm 5 mps 712 mmHg 87%
    08:00 +5°C° 0.1 mm 6 mps 712 mmHg 84%
    09:00 +6°C° 0.1 mm 7 mps 712 mmHg 80%
    10:00 +9°C° 0.1 mm 8 mps 711 mmHg 77%
    11:00 +9°C° 0 mm 8 mps 711 mmHg 75%
    12:00 +9°C° 0 mm 8 mps 711 mmHg 73%
    13:00 +9°C° 0 mm 8 mps 711 mmHg 71%
    14:00 +9°C° 0.1 mm 8 mps 711 mmHg 73%
    15:00 +8°C° 0.1 mm 7 mps 711 mmHg 74%
    16:00 +8°C° 0.1 mm 7 mps 711 mmHg 76%
    17:00 +8°C° 0.1 mm 6 mps 711 mmHg 78%
    18:00 +8°C° 0.1 mm 6 mps 712 mmHg 79%
    19:00 +7°C° 0.1 mm 5 mps 712 mmHg 81%
    20:00 +7°C° 0.1 mm 5 mps 712 mmHg 82%
    21:00 +7°C° 0.1 mm 4 mps 712 mmHg 82%
    22:00 +6°C° 0.1 mm 4 mps 713 mmHg 83%
    23:00 +5°C° 0 mm 3 mps 712 mmHg 85%

    26 October, Friday

    Time Temperature Precipitation Wind Pressure Humidity
    00:00 +5°C° 0 mm 3 mps 712 mmHg 87%
    01:00 +5°C° 0 mm 2 mps 712 mmHg 89%
    02:00 +5°C° 0 mm 2 mps 712 mmHg 90%
    03:00 +6°C° 0 mm 2 mps 712 mmHg 90%
    04:00 +6°C° 0 mm 2 mps 712 mmHg 90%
    05:00 +6°C° 0 mm 2 mps 712 mmHg 91%
    06:00 +6°C° 0 mm 2 mps 712 mmHg 92%
    07:00 +6°C° 0 mm 2 mps 711 mmHg 93%
    08:00 +7°C° 0 mm 2 mps 711 mmHg 88%
    09:00 +8°C° 0 mm 2 mps 711 mmHg 83%
    10:00 +9°C° 0 mm 2 mps 711 mmHg 78%
    11:00 +10°C° 0 mm 3 mps 711 mmHg 74%
    12:00 +11°C° 0 mm 3 mps 710 mmHg 71%
    13:00 +11°C° 0 mm 4 mps 710 mmHg 67%
    14:00 +11°C° 0 mm 3 mps 709 mmHg 69%
    15:00 +11°C° 0 mm 3 mps 709 mmHg 70%
    16:00 +10°C° 0 mm 3 mps 708 mmHg 72%
    17:00 +10°C° 0 mm 3 mps 708 mmHg 74%
    18:00 +8°C° 0 mm 4 mps 707 mmHg 77%
    19:00 +8°C° 0 mm 4 mps 707 mmHg 79%
    20:00 +7°C° 0 mm 4 mps 707 mmHg 80%
    21:00 +7°C° 0 mm 4 mps 707 mmHg 82%
    22:00 +8°C° 0 mm 3 mps 707 mmHg 84%
    23:00 +8°C° 0 mm 3 mps 706 mmHg 85%

    27 October, Saturday

    Time Temperature Precipitation Wind Pressure Humidity
    00:00 +7°C° 0 mm 3 mps 706 mmHg 86%
    01:00 +7°C° 0 mm 3 mps 706 mmHg 87%
    02:00 +7°C° 0 mm 3 mps 706 mmHg 87%
    03:00 +7°C° 0 mm 3 mps 706 mmHg 87%
    04:00 +6°C° 0 mm 2 mps 705 mmHg 88%
    05:00 +6°C° 0.1 mm 2 mps 705 mmHg 88%
    06:00 +6°C° 0.1 mm 2 mps 706 mmHg 88%
    07:00 +6°C° 0.1 mm 2 mps 706 mmHg 89%
    08:00 +6°C° 0.3 mm 2 mps 706 mmHg 86%
    09:00 +6°C° 0.3 mm 2 mps 706 mmHg 83%
    10:00 +7°C° 0.3 mm 2 mps 706 mmHg 80%
    11:00 +7°C° 0.3 mm 3 mps 706 mmHg 77%
    12:00 +7°C° 0.3 mm 3 mps 706 mmHg 74%
    13:00 +7°C° 0.3 mm 3 mps 706 mmHg 71%
    14:00 +5°C° 0 mm 3 mps 706 mmHg 72%
    15:00 +6°C° 0 mm 2 mps 706 mmHg 72%
    16:00 +6°C° 0 mm 2 mps 706 mmHg 72%
    17:00 +6°C° 0 mm 1 mps 706 mmHg 74%
    18:00 +6°C° 0 mm 1 mps 706 mmHg 76%
    19:00 +5°C° 0 mm 1 mps 706 mmHg 78%
    20:00 +5°C° 0.1 mm 1 mps 706 mmHg 78%
    21:00 +5°C° 0.1 mm 1 mps 706 mmHg 79%
    22:00 +5°C° 0.1 mm 1 mps 705 mmHg 80%
    23:00 +4°C° 0.3 mm 2 mps 705 mmHg 80%

    28 October, Sunday

    Time Temperature Precipitation Wind Pressure Humidity
    00:00 +3°C° 0.3 mm 2 mps 705 mmHg 81%
    01:00 +3°C° 0.3 mm 2 mps 705 mmHg 82%
    02:00 +3°C° 0.3 mm 2 mps 704 mmHg 83%
    03:00 +3°C° 0.3 mm 2 mps 704 mmHg 83%
    04:00 +2°C° 0.3 mm 2 mps 704 mmHg 83%
    05:00 +2°C° 0.2 mm 2 mps 704 mmHg 84%
    06:00 +2°C° 0.2 mm 2 mps 704 mmHg 84%
    07:00 +3°C° 0.2 mm 1 mps 704 mmHg 84%
    08:00 +3°C° 0.1 mm 2 mps 705 mmHg 80%
    09:00 +3°C° 0.1 mm 2 mps 706 mmHg 76%
    10:00 +4°C° 0.1 mm 2 mps 706 mmHg 72%
    11:00 +4°C° 0.1 mm 2 mps 707 mmHg 70%
    12:00 +5°C° 0.1 mm 2 mps 707 mmHg 67%
    13:00 +5°C° 0.1 mm 2 mps 708 mmHg 64%
    14:00 +5°C° 0.1 mm 2 mps 708 mmHg 68%
    15:00 +4°C° 0.1 mm 2 mps 709 mmHg 72%
    16:00 +4°C° 0.1 mm 2 mps 709 mmHg 75%
    17:00 +3°C° 0 mm 2 mps 710 mmHg 80%
    18:00 +2°C° 0 mm 2 mps 710 mmHg 84%
    19:00 +1°C° 0 mm 2 mps 711 mmHg 89%
    20:00 +1°C° 0 mm 2 mps 711 mmHg 89%
    21:00 -1°C° 0 mm 2 mps 711 mmHg 89%
    22:00 -1°C° 0 mm 2 mps 712 mmHg 89%
    23:00 -1°C° 0 mm 2 mps 712 mmHg 89%
    Show more